Last 24 Hours

Pinyon

10 Minute Data | America/Los_Angeles
as of 5/7/26 1:03 PM PDT
Date & Time Temp (°F) Dew Pt (°F) RH (%) Wind Spd (mph) Wind Dir (°) Wind Gust (mph) Wind Gst Dir (°) Daily Max Temp (°F) Daily Min Temp (°F)
5/7/26 - 1300 77.1 25.0 14 4.0 ESE | 121 8.3 SSE | 147 78.0 63.4
5/7/26 - 1250 76.5 24.1 14 6.3 ESE | 105 12.8 SE | 137 77.5 63.4
5/7/26 - 1240 76.9 25.6 15 6.4 SE | 145 11.8 SSE | 147 77.3 63.4
5/7/26 - 1230 76.7 24.4 14 5.9 SSW | 196 14.0 SSE | 160 77.3 63.4
5/7/26 - 1220 76.8 24.4 14 5.6 S | 176 11.7 S | 169 77.3 63.4
5/7/26 - 1210 76.3 24.8 15 5.8 S | 177 12.5 SSE | 164 77.2 63.4
5/7/26 - 1200 76.5 24.0 14 6.3 S | 182 14.2 S | 184 77.0 63.4
5/7/26 - 1150 76.2 25.9 15 5.7 S | 188 10.3 S | 186 76.9 63.4
5/7/26 - 1140 75.4 28.2 17 6.2 SE | 137 11.2 ESE | 117 76.4 63.4
5/7/26 - 1130 75.3 29.1 18 6.7 SE | 146 12.1 SE | 140 75.8 63.4
5/7/26 - 1120 74.8 29.4 19 7.1 SE | 136 15.0 S | 170 75.3 63.4
5/7/26 - 1110 74.6 29.7 19 6.2 SSE | 166 12.9 SSE | 155 75.3 63.4
5/7/26 - 1100 74.2 30.3 20 8.6 SE | 144 13.4 SE | 135 75.3 63.4
5/7/26 - 1050 74.6 30.4 20 6.1 SE | 138 11.6 SE | 124 75.3 63.4
5/7/26 - 1040 73.5 29.9 20 6.8 SE | 142 13.9 SE | 131 74.3 63.4
5/7/26 - 1030 73.4 30.1 20 8.0 SE | 128 13.8 SE | 131 74.0 63.4
5/7/26 - 1020 73.2 30.2 20 8.2 SSE | 153 14.4 SSE | 148 74.0 63.4
5/7/26 - 1010 72.8 30.1 21 8.4 SE | 136 14.4 SE | 145 73.9 63.4
5/7/26 - 1000 73.3 30.2 20 7.5 SE | 137 14.5 SE | 134 73.9 63.4
5/7/26 - 0950 73.3 30.2 20 5.0 S | 174 10.9 SSW | 199 73.9 63.4
5/7/26 - 0940 73.3 30.2 20 5.8 S | 175 11.8 SSE | 161 73.9 63.4
5/7/26 - 0930 72.8 30.0 20 5.3 S | 177 10.8 S | 188 73.7 63.4
5/7/26 - 0920 72.9 30.4 21 3.9 SE | 138 7.5 SSE | 158 73.7 63.4
5/7/26 - 0910 72.2 29.8 21 4.7 SSE | 158 12.2 SE | 136 72.8 63.4
5/7/26 - 0900 72.3 29.4 20 3.5 ESE | 102 11.6 SE | 127 72.8 63.4
5/7/26 - 0850 72.0 30.5 21 4.8 ESE | 107 10.4 ESE | 111 72.8 63.4
5/7/26 - 0840 72.0 31.2 22 2.2 NE | 48 5.5 NE | 52 72.6 63.4
5/7/26 - 0830 71.3 30.9 22 2.9 NNE | 17 5.7 N | 3 71.6 63.4
5/7/26 - 0820 70.7 31.0 23 3.0 N | 354 5.8 N | 6 71.4 63.4
5/7/26 - 0810 70.1 30.9 23 3.4 N | 2 6.4 N | 10 70.5 63.4
5/7/26 - 0800 69.5 30.8 24 2.8 N | 357 4.7 NNE | 16 69.9 63.4
5/7/26 - 0750 69.2 30.8 24 2.9 N | 358 4.5 N | 350 69.5 63.4
5/7/26 - 0740 68.6 30.8 24 3.0 N | 355 4.5 N | 352 69.0 63.4
5/7/26 - 0730 67.7 31.0 25 2.1 N | 0 3.4 N | 354 68.1 63.4
5/7/26 - 0720 67.0 30.8 26 1.9 NNE | 20 2.8 NE | 35 67.3 63.4
5/7/26 - 0710 66.8 30.1 25 2.1 NNW | 348 2.6 N | 349 67.1 63.4
5/7/26 - 0700 66.3 29.6 25 2.4 NNW | 346 3.4 NNW | 348 66.7 63.4
5/7/26 - 0650 65.5 29.6 26 3.3 NNW | 340 4.1 NNW | 331 66.7 63.4
5/7/26 - 0640 65.5 29.5 26 3.3 NW | 315 4.1 NW | 325 66.7 63.4
5/7/26 - 0630 65.7 29.5 26 3.1 NNW | 327 3.7 NNW | 337 66.7 63.4
5/7/26 - 0620 65.4 29.5 26 3.7 NNW | 328 4.8 NNW | 332 66.7 63.4
5/7/26 - 0610 65.1 29.5 26 3.4 NW | 319 4.5 NNW | 327 66.7 63.4
5/7/26 - 0600 65.0 29.5 26 3.2 WNW | 294 4.6 WNW | 291 66.7 63.4
5/7/26 - 0550 65.0 29.5 26 3.3 WNW | 303 4.5 WNW | 299 66.7 63.4
5/7/26 - 0540 65.3 29.7 26 4.2 NW | 320 4.7 NW | 323 66.7 63.4
5/7/26 - 0530 65.0 29.9 27 3.9 NW | 322 4.7 NW | 325 66.7 63.4
5/7/26 - 0520 64.5 29.9 27 3.7 NW | 315 5.1 NW | 311 66.7 63.4
5/7/26 - 0510 64.6 30.0 27 3.8 NW | 320 4.9 NW | 324 66.7 63.4
5/7/26 - 0500 64.2 30.0 27 3.9 NNW | 327 4.7 NW | 318 66.7 63.4
5/7/26 - 0450 63.8 30.1 28 3.2 NNW | 329 3.9 NNW | 330 66.7 63.4
5/7/26 - 0440 64.2 30.1 28 3.3 WNW | 299 4.7 WNW | 295 66.7 63.4
5/7/26 - 0430 64.0 30.2 28 3.8 WNW | 286 4.9 WNW | 294 66.7 63.4
5/7/26 - 0420 63.6 30.1 28 3.7 WNW | 292 5.0 WNW | 293 66.7 63.4
5/7/26 - 0410 64.0 30.0 28 3.4 WNW | 297 5.0 WNW | 292 66.7 63.4
5/7/26 - 0400 65.1 29.9 27 2.9 WNW | 303 5.8 WNW | 287 66.7 63.9
5/7/26 - 0350 65.1 29.8 26 2.9 WNW | 284 6.7 WNW | 284 66.7 63.9
5/7/26 - 0340 64.3 29.7 27 3.8 WNW | 290 5.4 W | 280 66.7 63.9
5/7/26 - 0330 64.8 29.9 27 4.1 W | 277 5.8 W | 276 66.7 63.9
5/7/26 - 0320 65.6 30.2 26 2.4 WNW | 287 3.9 W | 280 66.7 63.9
5/7/26 - 0310 64.9 30.1 27 1.3 NW | 325 2.7 NNW | 346 66.7 63.9
5/7/26 - 0300 64.6 30.3 27 2.0 N | 352 3.6 NW | 322 66.7 63.9
5/7/26 - 0250 65.5 30.4 27 3.5 NW | 326 4.2 NNW | 329 66.7 63.9
5/7/26 - 0240 66.5 30.5 26 3.2 NW | 324 4.8 NNW | 329 66.7 63.9
5/7/26 - 0230 66.5 30.6 26 2.6 NNW | 334 3.4 NW | 323 66.7 63.9
5/7/26 - 0220 65.6 30.6 27 3.3 NW | 318 4.2 NW | 318 66.0 63.9
5/7/26 - 0210 65.3 30.5 27 2.4 WNW | 303 3.8 NW | 314 65.5 63.9
5/7/26 - 0200 64.5 30.6 28 3.6 WNW | 291 5.6 WNW | 285 65.0 63.9
5/7/26 - 0150 64.4 30.6 28 4.9 WNW | 285 6.1 WNW | 286 64.9 63.9
5/7/26 - 0140 64.4 30.5 28 4.6 WNW | 283 5.7 WNW | 287 64.9 64.2
5/7/26 - 0130 64.6 30.5 28 4.6 WNW | 282 5.0 WNW | 284 64.9 64.4
5/7/26 - 0120 64.7 30.5 28 4.6 WNW | 289 5.1 WNW | 292 64.9 64.4
5/7/26 - 0110 64.7 30.8 28 3.3 WNW | 298 4.4 WNW | 295 64.8 64.4
5/7/26 - 0100 64.2 31.2 29 4.5 WNW | 284 5.3 W | 270 69.5 44.1
5/7/26 - 0050 64.4 31.6 29 5.2 W | 273 6.5 W | 274 69.5 44.1
5/7/26 - 0040 64.3 32.3 30 4.1 WNW | 282 5.2 W | 266 69.5 44.1
5/7/26 - 0030 64.2 32.9 31 4.2 WNW | 292 5.6 WNW | 283 69.5 44.1
5/7/26 - 0020 63.9 33.7 32 2.7 NW | 309 4.0 WNW | 295 69.5 44.1
5/7/26 - 0010 64.1 34.2 33 2.9 WNW | 301 3.8 WNW | 289 69.5 44.1
5/7/26 - 0000 64.4 34.5 33 3.5 NNW | 327 4.3 NW | 326 69.5 44.1
5/6/26 - 2350 64.4 34.6 33 3.8 NW | 322 4.7 NW | 316 69.5 44.1
5/6/26 - 2340 64.5 35.0 33 3.5 NW | 316 4.1 NW | 321 69.5 44.1
5/6/26 - 2330 64.4 36.4 35 3.8 NW | 325 4.8 NW | 326 69.5 44.1
5/6/26 - 2320 63.8 37.2 37 5.1 NW | 323 6.3 NW | 315 69.5 44.1
5/6/26 - 2310 62.4 38.4 41 4.2 NNW | 348 5.0 N | 6 69.5 44.1
5/6/26 - 2300 61.9 38.4 42 5.0 N | 359 5.5 N | 1 69.5 44.1
5/6/26 - 2250 61.8 38.5 42 5.2 N | 355 5.8 N | 354 69.5 44.1
5/6/26 - 2240 61.4 38.7 43 5.1 N | 6 5.8 N | 8 69.5 44.1
5/6/26 - 2230 61.2 38.7 43 5.3 N | 4 6.2 N | 0 69.5 44.1
5/6/26 - 2220 60.9 38.9 44 6.1 N | 7 6.7 N | 11 69.5 44.1
5/6/26 - 2210 60.5 39.0 45 6.3 N | 1 6.9 N | 353 69.5 44.1
5/6/26 - 2200 61.3 38.9 43 5.2 NNW | 340 6.6 N | 5 69.5 44.1
5/6/26 - 2150 62.1 39.1 43 3.9 NNW | 333 4.7 NNW | 334 69.5 44.1
5/6/26 - 2140 62.4 39.2 42 2.9 N | 5 3.2 NNE | 16 69.5 44.1
5/6/26 - 2130 62.5 39.3 42 1.9 N | 1 2.9 N | 1 69.5 44.1
5/6/26 - 2120 62.2 39.4 43 1.3 N | 10 2.5 N | 9 69.5 44.1
5/6/26 - 2110 62.4 39.5 43 2.2 N | 357 3.1 N | 353 69.5 44.1
5/6/26 - 2100 62.8 39.7 43 2.2 N | 357 3.5 NNW | 331 69.5 44.1
5/6/26 - 2050 63.1 39.8 42 2.0 N | 2 2.8 N | 4 69.5 44.1
5/6/26 - 2040 63.2 39.9 42 1.8 N | 5 2.3 N | 11 69.5 44.1
5/6/26 - 2030 63.0 40.0 43 2.6 N | 4 3.2 N | 6 69.5 44.1
5/6/26 - 2020 63.0 40.1 43 3.6 N | 7 4.5 N | 0 69.5 44.1
5/6/26 - 2010 63.1 40.4 43 3.9 N | 7 4.6 NNE | 15 69.5 44.1
5/6/26 - 2000 63.4 40.1 42 4.2 NNE | 20 5.0 NE | 35 69.5 44.1
5/6/26 - 1950 63.6 39.8 42 4.6 NE | 38 6.1 NNE | 25 69.5 44.1
5/6/26 - 1940 64.0 39.9 41 4.4 NNE | 25 5.9 NNE | 30 69.5 44.1
5/6/26 - 1930 64.7 39.8 40 3.9 NNE | 28 6.9 NNE | 27 69.5 44.1
5/6/26 - 1920 65.4 38.7 37 2.8 NE | 44 6.4 NNE | 27 69.5 44.1
5/6/26 - 1910 65.8 38.0 36 3.1 SE | 135 4.2 SE | 145 69.5 44.1
5/6/26 - 1900 66.4 38.0 35 3.9 SE | 146 5.4 SSE | 148 69.5 44.1
5/6/26 - 1850 66.9 37.7 34 3.7 SE | 132 5.0 SE | 138 69.5 44.1
5/6/26 - 1840 67.0 37.5 34 5.1 SE | 138 8.4 SE | 139 69.5 44.1
5/6/26 - 1830 67.6 37.2 33 6.2 SE | 138 8.4 SSE | 150 69.5 44.1
5/6/26 - 1820 68.4 36.5 31 4.5 SE | 130 7.1 SE | 127 69.5 44.1
5/6/26 - 1810 69.0 35.7 29 3.8 ESE | 106 6.9 SE | 128 69.5 44.1
5/6/26 - 1800 69.1 35.3 29 4.3 ESE | 112 9.1 SSE | 159 69.5 44.1
5/6/26 - 1750 68.7 35.2 29 3.6 ENE | 68 8.7 NNE | 28 69.5 44.1
5/6/26 - 1740 68.3 34.8 29 2.4 S | 181 5.7 SE | 144 69.5 44.1
5/6/26 - 1730 68.6 35.3 29 4.7 SE | 129 11.1 E | 99 69.5 44.1
5/6/26 - 1720 68.8 35.1 29 3.4 NNE | 27 6.4 ESE | 123 69.5 44.1
5/6/26 - 1710 69.1 35.5 29 4.0 ESE | 113 9.8 ESE | 104 69.5 44.1
5/6/26 - 1700 69.2 35.2 29 5.7 SE | 141 13.0 ESE | 112 69.5 44.1
5/6/26 - 1650 69.2 35.2 29 5.3 SSE | 166 12.7 SSE | 154 69.5 44.1
5/6/26 - 1640 68.5 35.3 29 4.4 SW | 215 10.0 SSW | 195 69.5 44.1
5/6/26 - 1630 68.3 35.4 30 4.4 ESE | 106 11.5 SE | 126 69.5 44.1
5/6/26 - 1620 68.7 35.4 29 7.0 ESE | 107 12.6 ESE | 104 69.5 44.1
5/6/26 - 1610 67.6 35.4 30 4.0 SSE | 157 9.6 SSE | 156 69.1 44.1
5/6/26 - 1600 68.3 35.6 30 6.3 SE | 146 11.8 SE | 136 69.1 44.1
5/6/26 - 1550 67.8 35.4 30 4.1 SSW | 199 9.7 SSE | 168 69.1 44.1
5/6/26 - 1540 67.8 35.4 30 6.3 SE | 140 14.2 SSE | 152 69.1 44.1
5/6/26 - 1530 67.5 35.0 30 6.3 SE | 146 11.7 ESE | 114 69.1 44.1
5/6/26 - 1520 67.0 35.1 31 6.3 SE | 137 12.9 SE | 144 69.1 44.1
5/6/26 - 1510 68.3 35.3 29 7.4 SSE | 158 17.6 SE | 139 69.1 44.1
5/6/26 - 1500 67.2 35.2 30 5.9 ESE | 120 10.9 SE | 145 67.9 44.1
5/6/26 - 1450 66.8 35.1 31 5.5 SE | 135 13.0 SSE | 163 67.9 44.1
5/6/26 - 1440 66.6 35.1 31 7.8 ESE | 120 15.3 SE | 135 67.5 44.1
5/6/26 - 1430 66.4 34.9 31 5.4 SE | 134 12.7 SE | 139 67.5 44.1
5/6/26 - 1420 66.5 34.8 31 5.3 SSE | 151 11.5 S | 177 67.5 44.1
5/6/26 - 1410 66.4 34.4 30 6.2 E | 98 11.9 ESE | 107 66.9 44.1
5/6/26 - 1400 65.6 33.9 31 5.3 SE | 128 11.8 SE | 131 66.9 44.1
5/6/26 - 1350 65.9 33.6 30 8.0 ESE | 116 14.9 SSE | 157 66.9 44.1
5/6/26 - 1340 65.3 33.8 31 6.8 SE | 140 12.9 SE | 140 66.9 44.1
5/6/26 - 1330 65.0 32.8 30 8.2 SE | 127 14.3 SSE | 152 66.9 44.1
5/6/26 - 1320 64.8 32.4 30 8.0 SE | 128 14.5 SE | 134 66.9 44.1
5/6/26 - 1310 65.7 32.3 29 6.6 SE | 146 13.7 ESE | 122 66.9 44.1
5/6/26 - 1300 64.6 32.2 30 6.1 SSE | 158 13.2 SE | 142 65.5 44.1
Max 77.1 40.4 45 8.6 - 17.6 - 78.0 64.4
Avg 67.1 33.0 29 4.5 - 7.7 - - -
Min 60.5 24.0 14 1.3 - 2.3 - 64.8 44.1